Voltar ao catálogo

COSMOS 1275 DEB

AtivoPO
NORAD 42215·DEBRIS·🇷🇺 Russia

Lançado Jun 4, 1981 de Plesetsk Cosmodrome

Loading…

Próximas Passagens (próximas 24 horas)

TLE

ObsoletoSource: Space-Track

Época: Aug 28, 2026, 08:35 UTC

1 42215U 81053UF  26240.35808530  .00000200  00000-0  17250-3 0  9997
2 42215  82.8957 279.8210 0105430 213.4635 145.9833 13.79409340640611

Acompanhe COSMOS 1275 DEB em tempo real com AllMySat

Download on the App Store